Eagle, CO

6:26 AM MDT on August 20, 2017 (GMT -0600)
Eagle County Regional

Weather History for KEGE - November, 2012

Change the Weather History Date:

Tuesday, November 6, 2012

  Actual Average Record
Temperature  
Mean Temperature 43 °F -  
Max Temperature 62 °F 54 °F 75 °F (2013)
Min Temperature 24 °F 20 °F 4 °F (1959)
Degree Days  
Heating Degree Days 22    
Moisture  
Dew Point 23 °F    
Average Humidity 63    
Maximum Humidity 93    
Minimum Humidity 20    
Precipitation  
Precipitation 0.00 in - - ()
Sea Level Pressure  
Sea Level Pressure 30.36 in    
Wind  
Wind Speed 2 mph (ESE)    
Max Wind Speed 12 mph    
Max Gust Speed -    
Visibility 10 miles    
Events      
Averages and records for this station are not official NWS values.
T = Trace of Precipitation, MM = Missing Value Source: NWS Daily Summary

Daily Weather History Graph

Daily Weather History Graph

Search for Another Location

Airport or City:

Trip Planner

Search our weather history database for the weather conditions in past years. The results will help you decide how hot, cold, wet, or windy it might be!

Date:

Astronomy

Nov. 06, 2012 Rise Set
Actual Time 6:42 AM MST 4:59 PM MST
Civil Twilight 6:14 AM MST 5:28 PM MST
Nautical Twilight 5:41 AM MST 6:00 PM MST
Astronomical Twilight 5:10 AM MST 6:31 PM MST
Moon 11:41 PM MST (11/6) 12:36 PM MST (11/6)
Length of Visible Light 11h 13m
Length of Day
10h 17m
Waning Gibbous, 52% of the Moon is Illuminated
Nov 6
Waning Gibbous
Nov 6
Last Quarter
Nov 13
New
Nov 20
First Quarter
Nov 28
Full

Hourly Weather History & Observations

Time (MST) Temp. Windchill Dew Point Humidity Pressure Visibility Wind Dir Wind Speed Gust Speed Precip Events Conditions
12:15 AM 33.8 °F 30.8 °F 24.8 °F 70% 30.38 in 10.0 mi South 3.5 mph - N/A   Clear
12:35 AM 33.8 °F - 24.8 °F 70% 30.37 in 10.0 mi Calm Calm - N/A   Clear
12:55 AM 30.2 °F - 26.6 °F 86% 30.38 in 10.0 mi Calm Calm - N/A   Clear
1:15 AM 32.0 °F - 26.6 °F 80% 30.39 in 10.0 mi Calm Calm - N/A   Clear
1:35 AM 30.2 °F 24.3 °F 26.6 °F 86% 30.39 in 10.0 mi East 5.8 mph - N/A   Clear
1:55 AM 30.2 °F - 26.6 °F 86% 30.39 in 10.0 mi Calm Calm - N/A   Clear
2:15 AM 30.2 °F - 24.8 °F 80% 30.40 in 10.0 mi Calm Calm - N/A   Clear
2:35 AM 30.2 °F - 24.8 °F 80% 30.40 in 10.0 mi Calm Calm - N/A   Clear
2:55 AM 28.4 °F - 24.8 °F 86% 30.40 in 10.0 mi Calm Calm - N/A   Clear
3:15 AM 28.4 °F - 24.8 °F 86% 30.39 in 10.0 mi Calm Calm - N/A   Clear
3:35 AM 28.4 °F 24.6 °F 24.8 °F 86% 30.39 in 10.0 mi East 3.5 mph - N/A   Clear
3:55 AM 26.6 °F 22.6 °F 24.8 °F 93% 30.41 in 10.0 mi ESE 3.5 mph - N/A   Clear
4:55 AM 26.6 °F 22.6 °F 24.8 °F 93% 30.41 in 10.0 mi East 3.5 mph - N/A   Clear
5:15 AM 26.6 °F 22.6 °F 23.0 °F 86% 30.41 in 10.0 mi SE 3.5 mph - N/A   Clear
5:35 AM 26.6 °F 22.6 °F 23.0 °F 86% 30.41 in 10.0 mi East 3.5 mph - N/A   Clear
5:55 AM 26.6 °F - 23.0 °F 86% 30.42 in 10.0 mi Calm Calm - N/A   Clear
6:15 AM 24.8 °F - 23.0 °F 93% 30.42 in 10.0 mi Calm Calm - N/A   Clear
6:35 AM 24.8 °F - 21.2 °F 86% 30.43 in 10.0 mi Calm Calm - N/A   Clear
6:50 AM 26.6 °F - 23.0 °F 86% 30.44 in 10.0 mi Calm Calm - N/A   Clear
6:55 AM 26.6 °F - 23.0 °F 86% 30.44 in 10.0 mi Calm Calm - N/A   Clear
7:50 AM 26.6 °F - 24.8 °F 93% 30.45 in 10.0 mi Calm Calm - N/A   Clear
8:50 AM 35.6 °F - 26.6 °F 70% 30.45 in 10.0 mi Calm Calm - N/A   Partly Cloudy
9:50 AM 39.2 °F - 26.6 °F 61% 30.44 in 10.0 mi Calm Calm - N/A   Partly Cloudy
10:50 AM 46.4 °F - 28.4 °F 50% 30.42 in 10.0 mi Calm Calm - N/A   Partly Cloudy
11:59 AM 51.8 °F - 26.6 °F 38% 30.36 in 10.0 mi Calm Calm - N/A   Partly Cloudy
12:48 PM 55.4 °F - 24.8 °F 31% 30.33 in 10.0 mi Calm Calm - N/A   Partly Cloudy
1:49 PM 60.8 °F - 19.4 °F 20% 30.29 in 10.0 mi Calm Calm - N/A   Partly Cloudy
2:46 PM 62.6 °F - 21.2 °F 20% 30.28 in 10.0 mi Calm Calm - N/A   Partly Cloudy
3:46 PM 62.6 °F - 21.2 °F 20% 30.28 in 10.0 mi Calm Calm - N/A   Partly Cloudy
4:45 PM 60.8 °F - 21.2 °F 22% 30.27 in 10.0 mi Calm Calm - N/A   Partly Cloudy
5:58 PM 50.0 °F - 21.2 °F 32% 30.29 in 10.0 mi ENE 11.5 mph - N/A   Partly Cloudy
6:46 PM 46.4 °F - 21.2 °F 37% 30.30 in 10.0 mi Calm Calm - N/A   Partly Cloudy
7:15 PM 42.8 °F 39.3 °F 21.2 °F 42% 30.31 in 10.0 mi SE 5.8 mph - N/A   Clear
7:35 PM 42.8 °F 40.1 °F 21.2 °F 42% 30.31 in 10.0 mi East 4.6 mph - N/A   Clear
7:55 PM 42.8 °F 41.1 °F 19.4 °F 39% 30.31 in 10.0 mi East 3.5 mph - N/A   Clear
8:15 PM 39.2 °F - 19.4 °F 45% 30.32 in 10.0 mi Calm Calm - N/A   Clear
8:35 PM 39.2 °F 37.0 °F 21.2 °F 49% 30.32 in 10.0 mi ESE 3.5 mph - N/A   Clear
8:55 PM 37.4 °F 34.9 °F 21.2 °F 52% 30.32 in 10.0 mi ESE 3.5 mph - N/A   Clear
9:15 PM 35.6 °F - 19.4 °F 52% 30.32 in 10.0 mi Calm Calm - N/A   Clear
9:35 PM 35.6 °F - 21.2 °F 56% 30.32 in 10.0 mi Calm Calm - N/A   Clear
9:55 PM 35.6 °F - 19.4 °F 52% 30.32 in 10.0 mi Calm Calm - N/A   Clear
10:15 PM 35.6 °F - 19.4 °F 52% 30.33 in 10.0 mi Calm Calm - N/A   Clear
10:35 PM 33.8 °F 30.8 °F 19.4 °F 56% 30.32 in 10.0 mi SE 3.5 mph - N/A   Clear
10:55 PM 33.8 °F 30.8 °F 19.4 °F 56% 30.33 in 10.0 mi East 3.5 mph - N/A   Clear
11:15 PM 32.0 °F 28.7 °F 19.4 °F 60% 30.33 in 10.0 mi ESE 3.5 mph - N/A   Clear
11:35 PM 32.0 °F 28.7 °F 19.4 °F 60% 30.34 in 10.0 mi ESE 3.5 mph - N/A   Clear
11:55 PM 32.0 °F 28.7 °F 19.4 °F 60% 30.34 in 10.0 mi East 3.5 mph - N/A   Clear